Weather History for Milwaukee, WI

Change the Weather History Date:

Saturday, December 24, 2011

  Actual Average Record
Temperature  
Mean Temperature 31 °F 24 °F  
Max Temperature 39 °F 31 °F 60 °F (1889)
Min Temperature 22 °F 18 °F -21 °F (1872)
Degree Days  
Heating Degree Days 34 41  
Month to date heating degree days 748 903  
Since 1 July heating degree days 1926 2268  
Cooling Degree Days 0 0  
Month to date cooling degree days 0 0  
Year to date cooling degree days 793 641  
Moisture  
Dew Point 23 °F    
Average Humidity 73    
Maximum Humidity 92    
Minimum Humidity 54    
Precipitation  
Precipitation 0.00 in 0.06 in 1.84 in (1979)
Month to date precipitation 1.57 1.64  
Year to date precipitation 31.93 34.36  
Snow  
Snow 0.00 in 0.40 in 9.00 in (1965)
Month to date snowfall 1.1 7.8  
Since 1 July snowfall 1.2 10.5  
Snow Depth 0.00 in    
Sea Level Pressure  
Sea Level Pressure 30.21 in    
Wind  
Wind Speed 10 mph (SW)    
Max Wind Speed 23 mph    
Max Gust Speed 28 mph    
Visibility 10 miles    
Events      
T = Trace of Precipitation, MM = Missing Value Source: NWS Daily Summary

Daily Weather History Graph

Daily Weather History Graph

Search for Another Location

Airport:

Trip Planner

Search our weather history database for the weather conditions in past years. The results will help you decide how hot, cold, wet, or windy it might be!

Date:

Astronomy

Dec. 24, 2011 Rise Set
Actual Time 7:20 AM CST 4:21 PM CST
Civil Twilight 6:48 AM CST 4:53 PM CST
Nautical Twilight 6:12 AM CST 5:29 PM CST
Astronomical Twilight 5:37 AM CST 6:04 PM CST
Moon 7:08 AM CST (12/24) 4:34 PM CST (12/24)
Length of Visible Light 10h 05m
Length of Day
9h 00m
New Moon, 0% of the Moon is Illuminated
Dec 24
New Moon
Dec 24
New
Jan 1
First Quarter
Jan 9
Full
Jan 16
Last Quarter

Hourly Weather History & Observations

Time (CST) Temp. Windchill Dew Point Humidity Pressure Visibility Wind Dir Wind Speed Gust Speed Precip Events Conditions
12:52 AM 28.9 °F 21.9 °F 21.0 °F 72% 30.25 in 10.0 mi SW 6.9 mph - N/A   Overcast
1:52 AM 28.0 °F 21.7 °F 21.0 °F 75% 30.27 in 10.0 mi SSW 5.8 mph - N/A   Mostly Cloudy
2:52 AM 25.0 °F 18.1 °F 21.0 °F 85% 30.27 in 9.0 mi SSW 5.8 mph - N/A   Partly Cloudy
3:52 AM 24.1 °F 18.2 °F 19.9 °F 84% 30.27 in 9.0 mi SSW 4.6 mph - N/A   Clear
4:52 AM 24.1 °F 19.7 °F 19.9 °F 84% 30.28 in 8.0 mi South 3.5 mph - N/A   Clear
5:52 AM 23.0 °F 17.0 °F 19.0 °F 85% 30.30 in 8.0 mi SW 4.6 mph - N/A   Clear
6:52 AM 21.9 °F 17.2 °F 19.0 °F 89% 30.30 in 8.0 mi SW 3.5 mph - N/A   Clear
7:52 AM 23.0 °F 14.7 °F 19.0 °F 85% 30.30 in 7.0 mi SW 6.9 mph - N/A   Clear
8:52 AM 25.0 °F 16.3 °F 21.0 °F 85% 30.31 in 8.0 mi SW 8.1 mph - N/A   Clear
9:52 AM 28.0 °F 21.7 °F 21.9 °F 78% 30.31 in 10.0 mi SSW 5.8 mph - N/A   Clear
10:52 AM 32.0 °F 22.1 °F 21.9 °F 66% 30.27 in 10.0 mi South 13.8 mph - N/A   Clear
11:52 AM 35.1 °F 26.4 °F 23.0 °F 61% 30.23 in 10.0 mi SSW 12.7 mph - N/A   Clear
12:52 PM 37.0 °F 27.0 °F 23.0 °F 57% 30.21 in 10.0 mi SW 18.4 mph - N/A   Clear
1:52 PM 37.9 °F 30.0 °F 23.0 °F 55% 30.19 in 10.0 mi WSW 12.7 mph 24.2 mph N/A   Clear
2:52 PM 37.9 °F 28.9 °F 24.1 °F 57% 30.18 in 10.0 mi SW 16.1 mph 23.0 mph N/A   Clear
3:52 PM 36.0 °F 27.5 °F 25.0 °F 64% 30.15 in 10.0 mi SW 12.7 mph - N/A   Clear
4:52 PM 34.0 °F 24.2 °F 26.1 °F 73% 30.14 in 10.0 mi SW 15.0 mph 21.9 mph N/A   Clear
5:52 PM 33.1 °F 23.9 °F 26.1 °F 75% 30.15 in 10.0 mi SW 12.7 mph - N/A   Clear
6:52 PM 33.1 °F 23.9 °F 26.1 °F 75% 30.15 in 10.0 mi SW 12.7 mph - N/A   Clear
7:52 PM 34.0 °F 23.8 °F 26.1 °F 73% 30.14 in 10.0 mi SW 16.1 mph - N/A   Partly Cloudy
8:52 PM 34.0 °F 24.2 °F 26.1 °F 73% 30.12 in 10.0 mi WSW 15.0 mph - N/A   Mostly Cloudy
9:52 PM 35.1 °F 25.9 °F 26.1 °F 70% 30.12 in 10.0 mi WSW 13.8 mph 20.7 mph N/A   Mostly Cloudy
10:52 PM 36.0 °F 27.5 °F 26.1 °F 67% 30.09 in 10.0 mi WSW 12.7 mph - N/A   Overcast
11:52 PM 37.0 °F 29.3 °F 26.1 °F 65% 30.07 in 10.0 mi WSW 11.5 mph - N/A   Mostly Cloudy